[[{"header":{"parameterUnit":"m.s-1","parameterCategory":1,"la1":30.2991,"la2":30.254,"lo1":-89.0895,"lo2":-89.0444,"dx":0.0017,"dy":0.0017,"nx":28,"ny":28,"refTime":"2023-01-27T15:00:00:Z","depth":0,"parameterNumber":2,"parameterNumberName":"U-component_of_WINDS"},"data":[0,0,0,0,0,0,0,0,0,0,0,0,0,0,0,0,0,0,0,0,0,0,0,0,0,0,0,0,0,0,0,0,0,0,0,0,0,0,0,0,0,0,0,0,0,0,0,0,0,0,0,0,0,0,0,0,0,0,-6.3505,-6.3506,0,-6.36,-6.3601,-6.3602,-6.3554,-6.3552,-6.3549,-6.3547,-6.3642,-6.3647,-6.3652,0,0,0,0,0,0,0,0,0,0,0,0,0,-6.3279,-6.3283,-6.3504,-6.3506,-6.3507,-6.36,-6.3601,-6.3603,-6.3555,-6.3552,-6.3549,-6.3546,-6.364,-6.3646,-6.3652,0,0,0,0,0,0,0,0,0,0,0,0,0,-6.3376,-6.3285,-6.3504,-6.3494,-6.3494,-6.36,-6.3601,-6.3603,-6.3555,-6.3552,-6.3548,-6.3544,-6.3639,-6.3646,-6.3653,-6.3772,0,0,-6.3675,-6.3678,0,0,0,0,0,0,0,0,-6.337,-6.3384,-6.3495,-6.3495,-6.3496,-6.3562,-6.3557,-6.366,-6.3556,-6.3532,-6.3547,-6.3543,-6.3618,-6.3627,-6.3653,-6.3777,-6.3781,-6.3676,-6.368,-6.3683,-6.3685,0,0,0,0,0,0,0,-6.3364,-6.338,-6.3542,-6.3496,-6.3497,-6.3485,-6.3494,-6.3576,-6.3595,-6.3534,-6.3531,-6.3543,-6.3618,-6.3646,-6.3655,-6.3782,-6.3675,-6.3682,-6.3686,-6.3689,-6.4009,-6.4013,0,0,0,0,0,0,-6.3358,-6.3375,-6.3539,-6.3545,-6.3423,-6.3492,-6.3503,-6.3544,-6.3594,-6.3598,-6.3546,-6.354,-6.3635,-6.3646,-6.3658,-6.38,-6.3683,-6.369,-6.3694,-6.4005,-6.401,-6.4015,0,0,0,0,0,0,-6.3353,-6.3373,-6.3535,-6.3459,-6.3479,-6.35,-6.3547,-6.3548,-6.3576,-6.3603,-6.3606,-6.3572,-6.3633,-6.3648,-6.3744,-6.3802,-6.3693,-6.37,-6.4,-6.4007,-6.4012,-6.4086,0,0,0,0,0,0,-6.3347,-6.3372,-6.3417,-6.3461,-6.3483,-6.3621,-6.355,-6.3553,-6.3589,-6.3583,-6.3628,-6.3631,-6.3631,-6.3734,-6.3752,-6.381,-6.3706,-6.3995,-6.4003,-6.401,-6.4078,-6.4093,-6.4107,0,0,0,0,0,-6.3339,-6.3434,-6.342,-6.344,-6.3541,-6.3624,-6.3637,-6.3635,-6.3594,-6.364,-6.3658,-6.363,-6.3795,-6.3744,-6.3764,-6.3826,-6.3991,-6.4001,-6.401,-6.4071,-6.409,-6.4106,0,0,0,0,0,0,-6.3395,-6.3439,-6.3424,-6.3536,-6.3577,-6.3616,-6.3673,-6.3656,-6.3708,-6.37,-6.3695,-6.3706,-6.3806,-6.3826,-6.3769,-6.3944,-6.3886,-6.39,-6.3926,-6.3945,-6.3959,-6.395,-6.3712,0,0,0,0,0,-6.3421,-6.3486,-6.352,-6.3615,-6.3637,-6.3652,-6.3688,-6.3684,-6.3726,-6.3742,-6.3767,-6.3808,-6.3869,-6.3909,-6.3966,-6.4083,-6.409,-6.4135,-6.4149,-6.4161,-6.4171,-6.4233,-6.4253,-6.4045,-6.4045,-6.4045,0,0,-6.3473,-6.3506,-6.3546,-6.3627,-6.3659,-6.3725,-6.3667,-6.3739,-6.3788,-6.3753,-6.3845,-6.3866,-6.3911,-6.4018,-6.4066,-6.4038,-6.4232,-6.4173,-6.4182,-6.4186,-6.4245,-6.4265,-6.4282,-6.4051,-6.405,-6.4049,0,0,-6.3603,-6.3635,-6.3717,-6.375,-6.3799,-6.3809,-6.3829,-6.3872,-6.3884,-6.3977,-6.3952,-6.4011,-6.4116,-6.4149,-6.418,-6.4326,-6.4301,-6.4345,-6.4418,-6.4479,-6.4495,-6.4509,-6.4559,-6.4577,-6.4356,-6.4356,-6.4356,0,-6.3661,-6.3761,-6.3761,-6.3836,-6.3871,-6.3846,-6.3928,-6.3961,-6.4025,-6.405,-6.4019,-6.415,-6.418,-6.4293,-6.4329,-6.4356,-6.4377,-6.4337,-6.4493,-6.4507,-6.4521,-6.4568,-6.4587,-6.4361,-6.436,-6.436,-6.4359,0,-6.3829,-6.3899,-6.396,-6.4024,-6.4067,-6.4146,-6.4157,-6.4201,-6.4195,-6.4208,-6.4303,-6.4338,-6.4402,-6.443,-6.4423,-6.4543,-6.4523,-6.4493,-6.4434,-6.4545,-6.4589,-6.4607,-6.4368,-6.4366,-6.4365,-6.4363,0,0,-6.3992,-6.4058,-6.408,-6.4108,-6.4162,-6.4215,-6.4293,-6.4357,-6.4394,-6.4441,-6.4504,-6.4596,-6.4568,-6.4603,-6.4601,-6.4655,-6.4765,-6.4617,-6.4618,-6.4641,-6.4897,-6.4917,-6.4938,-6.4752,-6.4756,-6.4759,-6.4892,0,-6.4122,-6.4258,-6.4262,-6.4386,-6.445,-6.4428,-6.4496,-6.4536,-6.4552,-6.4607,-6.4625,-6.4688,-6.4648,-6.4669,-6.4722,-6.4741,-6.4816,-6.4732,-6.4809,-6.4812,-6.4794,-6.4961,-6.4982,-6.5106,-6.491,-6.4913,-6.4915,0,-6.4291,-6.4344,-6.4475,-6.452,-6.4547,-6.4608,-6.4666,-6.4721,-6.4767,-6.4774,-6.4815,-6.4806,-6.4885,-6.4827,-6.4935,-6.4877,-6.491,-6.4925,-6.493,-6.4933,-6.4867,-6.4966,-6.5146,-6.5163,-6.4943,-6.494,-6.4938,0,-6.4392,-6.4498,-6.4589,-6.4615,-6.4671,-6.4713,-6.4739,-6.4781,-6.4819,-6.4871,-6.4896,-6.4957,-6.4989,-6.5036,-6.5043,-6.5001,-6.5151,-6.5094,-6.5157,-6.5157,-6.5186,-6.5183,-6.537,-6.5214,-6.5214,-6.5213,-6.5213,0,-6.4535,-6.4615,-6.4635,-6.4691,-6.478,-6.4785,-6.4873,-6.4895,-6.4933,-6.4992,-6.4979,-6.5034,-6.5042,-6.51,-6.5107,-6.5194,-6.521,-6.5217,-6.5216,-6.5215,-6.5214,-6.5233,-6.5223,-6.5218,-6.5217,-6.5216,-6.5215,0,-6.4661,-6.4678,-6.4776,-6.4822,-6.4836,-6.4899,-6.4938,-6.4991,-6.5007,-6.5082,-6.51,-6.5125,-6.5192,-6.5206,-6.5285,-6.529,-6.5393,-6.5386,-6.5377,-6.5375,-6.5436,-6.5429,-6.5639,-6.5666,-6.5496,-6.5497,-6.5499,0,-6.4749,-6.481,-6.4863,-6.4902,-6.493,-6.4993,-6.5033,-6.5041,-6.5083,-6.5141,-6.5187,-6.5254,-6.5306,-6.5416,-6.544,-6.5501,-6.5493,-6.5563,-6.5502,-6.5499,-6.549,-6.5485,-6.549,-6.5573,-6.5575,-6.5576,-6.5577,0,-6.4901,-6.4907,-6.4965,-6.5027,-6.5075,-6.5124,-6.517,-6.5203,-6.5218,-6.5265,-6.5335,-6.5376,-6.5459,-6.5524,-6.5586,-6.5611,-6.5596,-6.5597,-6.5614,-6.5611,-6.5602,-6.5605,-6.5405,-6.5591,-6.559,-6.5589,-6.5588,-6.5587,-6.5008,-6.5061,-6.5107,-6.5173,-6.5209,-6.5253,-6.5305,-6.5329,-6.5387,-6.5455,-6.5457,-6.5533,-6.5578,-6.5659,-6.5689,-6.5748,-6.5725,-6.5751,-6.5757,-6.5762,-6.5766,-6.5597,-6.576,-6.5759,-6.5759,-6.5759,-6.5758,0,-6.5157,-6.5187,-6.5247,-6.5313,-6.5364,-6.5349,-6.54,-6.5444,-6.5511,-6.5555,-6.5608,-6.5688,-6.5753,-6.5784,-6.5847,-6.5888,-6.5883,-6.5904,-6.5899,-6.5905,-6.5784,-6.5761,-6.5907,-6.5907,-6.5907,-6.5907,-6.5907,-6.5907,-6.524,-6.5329,-6.5341,-6.5448,-6.5477,-6.5551,-6.5581,-6.5622,-6.5657,-6.5747,-6.5801,-6.5822,-6.5861,-6.5927,-6.5985,-6.5993,-6.6015,-6.6039,-6.6043,-6.5929,-6.5913,-6.5899,-6.5877,-6.6045,-6.6045,-6.6158,-6.6159,-6.616]},{"header":{"parameterUnit":"m.s-1","parameterCategory":1,"la1":30.2991,"la2":30.254,"lo1":-89.0895,"lo2":-89.0444,"dx":0.0017,"dy":0.0017,"nx":28,"ny":28,"refTime":"2023-01-27T15:00:00:Z","depth":0,"parameterNumber":3,"parameterNumberName":"V-component_of_WINDS"},"data":[0,0,0,0,0,0,0,0,0,0,0,0,0,0,0,0,0,0,0,0,0,0,0,0,0,0,0,0,0,0,0,0,0,0,0,0,0,0,0,0,0,0,0,0,0,0,0,0,0,0,0,0,0,0,0,0,0,0,2.4505,2.4506,0,2.4605,2.4606,2.4607,2.4635,2.4634,2.4634,2.4633,2.4734,2.4737,2.474,0,0,0,0,0,0,0,0,0,0,0,0,0,2.4338,2.4341,2.4505,2.4506,2.4507,2.4605,2.4606,2.4608,2.4635,2.4634,2.4634,2.4633,2.4733,2.4737,2.474,0,0,0,0,0,0,0,0,0,0,0,0,0,2.4421,2.4342,2.4505,2.4533,2.4536,2.4605,2.4606,2.4608,2.4635,2.4634,2.4633,2.4633,2.4731,2.4736,2.4741,2.4788,0,0,2.4756,2.4758,0,0,0,0,0,0,0,0,2.4416,2.4427,2.4527,2.4531,2.4535,2.4607,2.4584,2.4668,2.4635,2.4597,2.4633,2.4632,2.4692,2.47,2.4721,2.4793,2.4797,2.4756,2.4759,2.4761,2.4762,0,0,0,0,0,0,0,2.4411,2.4423,2.4544,2.4529,2.4533,2.4541,2.4552,2.46,2.4648,2.4601,2.4603,2.4615,2.4694,2.4716,2.4723,2.4798,2.4756,2.476,2.4763,2.4765,2.4918,2.4919,0,0,0,0,0,0,2.44,2.4418,2.4541,2.4547,2.4472,2.4544,2.4557,2.4584,2.4648,2.4657,2.4615,2.4615,2.4708,2.4718,2.4727,2.4789,2.4761,2.4766,2.4768,2.4917,2.4918,2.4919,0,0,0,0,0,0,2.4396,2.4411,2.4537,2.4484,2.45,2.4548,2.4579,2.4587,2.4609,2.4659,2.4667,2.4629,2.4708,2.472,2.4774,2.4792,2.4768,2.4772,2.4915,2.4917,2.4919,2.491,0,0,0,0,0,0,2.4391,2.4409,2.4427,2.4484,2.4503,2.4582,2.458,2.4589,2.4617,2.4619,2.4674,2.4682,2.4708,2.4766,2.4778,2.4798,2.4776,2.4914,2.4916,2.4918,2.4909,2.4912,2.4914,0,0,0,0,0,2.4385,2.442,2.4428,2.4443,2.4526,2.4583,2.4594,2.4623,2.4619,2.4638,2.467,2.468,2.4788,2.4771,2.4785,2.4807,2.4913,2.4915,2.4918,2.4908,2.4911,2.4914,0,0,0,0,0,0,2.4362,2.4427,2.4437,2.4491,2.4531,2.4587,2.4612,2.4625,2.4667,2.4666,2.4701,2.4713,2.4765,2.4791,2.4771,2.4858,2.4851,2.4856,2.4839,2.4842,2.4844,2.4837,2.478,0,0,0,0,0,2.4364,2.4404,2.4459,2.4501,2.4521,2.4563,2.4589,2.4608,2.4651,2.4668,2.4705,2.4746,2.4789,2.4817,2.4859,2.4913,2.4927,2.4936,2.4938,2.4939,2.4944,2.4977,2.4983,2.4928,2.4928,2.4928,0,0,2.4367,2.4407,2.443,2.4498,2.4531,2.4573,2.4577,2.462,2.4652,2.4675,2.4728,2.4757,2.4805,2.486,2.4885,2.4883,2.4962,2.4943,2.4944,2.4947,2.4981,2.4986,2.499,2.493,2.4929,2.4929,0,0,2.4394,2.4428,2.4468,2.4502,2.4554,2.4582,2.4592,2.4647,2.4667,2.4722,2.4741,2.4779,2.4852,2.4887,2.4914,2.4958,2.497,2.4971,2.4983,2.5015,2.502,2.5024,2.5041,2.5047,2.4975,2.4975,2.4975,0,2.439,2.4454,2.4487,2.453,2.456,2.4585,2.4627,2.4658,2.4721,2.4741,2.4738,2.4833,2.4867,2.4932,2.4943,2.4963,2.4977,2.4965,2.5016,2.5021,2.5025,2.5042,2.5049,2.4975,2.4975,2.4975,2.4975,0,2.4449,2.4493,2.452,2.4582,2.4615,2.4657,2.4696,2.4726,2.4744,2.4773,2.4829,2.4872,2.4925,2.4941,2.4958,2.5009,2.5007,2.501,2.5003,2.503,2.5047,2.5053,2.4975,2.4975,2.4975,2.4975,0,0,2.4462,2.4544,2.4553,2.4583,2.4644,2.4679,2.4723,2.4776,2.4802,2.4845,2.4884,2.4948,2.4952,2.4983,2.5004,2.5032,2.5068,2.5032,2.5034,2.5039,2.5129,2.5128,2.5135,2.5076,2.5077,2.5078,2.5126,0,2.4498,2.4579,2.4611,2.4677,2.472,2.4745,2.4784,2.4826,2.4855,2.4896,2.4928,2.4973,2.4974,2.4993,2.5022,2.5057,2.5086,2.5054,2.5113,2.5115,2.5101,2.5143,2.5141,2.5184,2.5133,2.5134,2.5135,0,2.455,2.4596,2.4666,2.4725,2.4744,2.4778,2.4832,2.487,2.4919,2.4938,2.4975,2.4995,2.5044,2.5035,2.5104,2.5081,2.5108,2.5129,2.5131,2.5138,2.5127,2.5153,2.5198,2.5205,2.5145,2.5144,2.5143,0,2.4555,2.4634,2.4687,2.4712,2.478,2.4805,2.4835,2.4883,2.4914,2.496,2.4981,2.5032,2.506,2.51,2.5134,2.5124,2.52,2.5193,2.5219,2.5218,2.5234,2.5232,2.5285,2.5249,2.5249,2.5249,2.5249,0,2.4591,2.4634,2.4691,2.4724,2.4773,2.481,2.4858,2.489,2.4933,2.4973,2.4998,2.5035,2.5078,2.5121,2.5148,2.5202,2.5214,2.5232,2.5239,2.523,2.5228,2.5248,2.5247,2.5251,2.525,2.525,2.525,0,2.4605,2.4644,2.4705,2.4766,2.4783,2.4817,2.487,2.4903,2.4935,2.4985,2.4999,2.5048,2.5101,2.5139,2.5206,2.5225,2.5283,2.5289,2.5267,2.5271,2.5295,2.5292,2.5363,2.5375,2.5329,2.533,2.533,0,2.4626,2.466,2.4726,2.4756,2.4786,2.4832,2.4865,2.4904,2.4937,2.4997,2.5024,2.5078,2.5124,2.5207,2.5248,2.53,2.5309,2.533,2.5317,2.5308,2.5311,2.5309,2.5314,2.5332,2.5332,2.5332,2.5333,0,2.466,2.4679,2.4726,2.478,2.4819,2.4863,2.4908,2.493,2.4977,2.5013,2.5068,2.5104,2.5174,2.5228,2.5286,2.5317,2.5333,2.5337,2.5346,2.5338,2.5324,2.5334,2.5274,2.5335,2.5335,2.5334,2.5334,2.5334,2.468,2.4712,2.4765,2.4817,2.4855,2.4897,2.4933,2.497,2.5016,2.5077,2.5097,2.5154,2.5205,2.5284,2.5316,2.5362,2.5361,2.5374,2.5377,2.538,2.5381,2.5317,2.5372,2.5372,2.5372,2.5372,2.5372,0,2.4717,2.4753,2.48,2.4863,2.4904,2.4918,2.4969,2.5003,2.5053,2.5099,2.5145,2.5209,2.5263,2.531,2.5366,2.5394,2.5403,2.5408,2.5406,2.5414,2.5377,2.5364,2.54,2.54,2.54,2.54,2.5399,2.5399,2.4741,2.4798,2.4823,2.49,2.4936,2.4993,2.5021,2.5061,2.5099,2.517,2.5215,2.5246,2.5294,2.5354,2.5405,2.5417,2.5437,2.544,2.5455,2.5419,2.5416,2.5413,2.5401,2.5444,2.5444,2.5488,2.5489,2.5489]}]]